Stations météo

Publicité
Bonn-Roleber, Allemagne (10519): Température de l'air & dewpoint: 14.07.2018 14:00:00 - 20.07.2018 14:00:00 (CEST)Bonn-Roleber, Allemagne (10519): Température de l'air 5cm & Température de l'air -5cm: 14.07.2018 14:00:00 - 20.07.2018 14:00:00 (CEST)Bonn-Roleber, Allemagne (10519): Température de l'air -20cm & Température de l'air -100cm: 14.07.2018 14:00:00 - 20.07.2018 14:00:00 (CEST)Bonn-Roleber, Allemagne (10519): Vitesse du vent & gusts: 14.07.2018 14:00:00 - 20.07.2018 14:00:00 (CEST)Bonn-Roleber, Allemagne (10519): Direction du vent: 14.07.2018 14:00:00 - 20.07.2018 14:00:00 (CEST)Bonn-Roleber, Allemagne (10519): reduced air pressure: 14.07.2018 14:00:00 - 20.07.2018 14:00:00 (CEST)Bonn-Roleber, Allemagne (10519): visibility: 14.07.2018 14:00:00 - 20.07.2018 14:00:00 (CEST)Bonn-Roleber, Allemagne (10519): Ensoleillement: 14.07.2018 14:00:00 - 20.07.2018 14:00:00 (CEST)Bonn-Roleber, Allemagne (10519): Quantités de précipitations: 14.07.2018 14:00:00 - 20.07.2018 14:00:00 (CEST)
Date & Time tt [°C] td [°C] tt 5cm [°C] tt -5cm [°C] tt -20cm [°C] tt -100cm [°C] ff [km/h] ff [knt] fx [km/h] fx [knt] dd ppp [hPa] vv [km] sd [min] rr [mm]
20.07.2018 14:00:00 28,1 10,0 36,9 31,5 23,5 19,4 7 4 14 8 N 1012,3 31 60 0,0
20.07.2018 13:00:00 27,3 9,4 33,7 29,5 22,7 19,3 4 2 12 7 N 1013,0 47 60 0,0
20.07.2018 12:00:00 25,9 12,4 30,9 26,9 22,1 19,3 5 3 8 5 WSW 1013,6 34 60 0,0
20.07.2018 11:00:00 22,0 10,7 28,6 24,3 21,7 19,3 4 2 8 5 N 1014,1 23 60 0,0
20.07.2018 10:00:00 20,7 11,5 23,7 22,5 21,5 19,3 3 1 8 5 SSE 1014,6 18 60 0,0
20.07.2018 09:00:00 18,7 11,7 19,8 20,3 21,5 19,3 4 2 6 3 SSW 1014,7 17 28 0,0
20.07.2018 08:00:00 17,0 13,1 16,3 19,1 21,7 19,3 4 2 5 3 SSE 1014,8 14 6 0,0
20.07.2018 07:00:00 14,4 11,7 13,2 18,6 22,0 19,3 4 2 5 3 SSE 1015,1 11 0 0,0
20.07.2018 06:00:00 13,7 11,2 11,4 18,6 22,4 19,3 3 2 8 5 SW 1015,5 10 0 0,0
20.07.2018 05:00:00 14,7 11,2 12,0 19,0 22,7 19,3 6 3 11 6 SSW 1015,4 13 0 0,0
20.07.2018 04:00:00 14,4 11,1 11,5 19,5 23,1 19,3 5 3 10 5 S 1015,7 13 0 0,0
20.07.2018 03:00:00 15,4 11,2 12,2 20,1 23,5 19,3 6 3 11 6 SSW 1015,9 18 0 0,0
20.07.2018 02:00:00 16,1 11,6 13,3 20,8 23,9 19,3 4 2 8 5 W 1016,0 26 0 0,0
20.07.2018 01:00:00 17,2 10,8 14,5 21,5 24,3 19,3 4 2 8 5 SSW 1016,1 36 0 0,0
20.07.2018 00:00:00 18,1 10,1 14,8 22,3 24,8 19,3 6 3 7 4 SE 1015,9 35 0 0,0
19.07.2018 23:00:00 19,4 10,0 15,4 23,3 25,1 19,3 4 2 5 3 ESE 1015,9 36 0 0,0
19.07.2018 22:00:00 20,3 10,4 16,5 24,7 25,5 19,3 4 2 8 5 ENE 1015,9 26 0 0,0
19.07.2018 21:00:00 23,9 9,6 20,7 26,6 25,6 19,3 4 2 11 6 NE 1015,3 43 59 0,0
19.07.2018 20:00:00 26,2 9,0 27,2 28,3 25,6 19,3 6 4 13 7 NE 1015,3 43 49 0,0
19.07.2018 19:00:00 26,3 7,4 27,3 29,6 25,4 19,3 6 4 12 6 NE 1015,6 41 52 0,0
19.07.2018 18:00:00 27,4 8,4 31,2 30,9 25,1 19,3 8 5 16 9 NE 1015,9 44 60 0,0
19.07.2018 17:00:00 27,2 9,3 33,9 31,0 24,6 19,3 9 5 18 10 NNW 1016,5 35 60 0,0
19.07.2018 16:00:00 26,7 7,5 32,1 30,9 24,1 19,3 10 5 23 12 SSW 1016,9 38 58 0,0
19.07.2018 15:00:00 25,8 11,2 29,7 29,2 23,5 19,3 9 5 20 11 SE 1017,1 38 39 0,0
19.07.2018 14:00:00 25,6 8,3 34,2 29,4 22,9 19,3 8 5 18 10 N 1017,5 27 32 0,0
19.07.2018 13:00:00 25,0 8,4 32,5 28,9 22,2 19,3 6 4 19 10 ENE 1017,9 36 60 0,0
19.07.2018 12:00:00 24,7 9,9 28,5 25,9 21,7 19,3 8 4 15 8 ESE 1018,2 52 37 0,0
19.07.2018 11:00:00 22,5 12,1 25,2 24,3 21,3 19,2 4 2 8 4 SSE 1018,6 41 16 0,0
19.07.2018 10:00:00 20,6 11,4 24,1 22,7 21,0 19,2 3 2 7 4 ENE 1018,9 34 55 0,0
19.07.2018 09:00:00 19,4 11,9 21,3 20,5 21,0 19,2 3 2 5 3 E 1018,9 24 60 0,0
19.07.2018 08:00:00 17,4 11,2 15,7 18,2 21,2 19,2 2 1 4 2 S 1018,8 21 60 0,0
19.07.2018 07:00:00 14,1 10,8 12,2 17,6 21,5 19,2 3 2 7 4 ESE 1018,9 18 17 0,0
19.07.2018 06:00:00 12,4 10,3 10,0 17,6 21,9 19,2 4 2 8 5 SSE 1018,9 16 0 0,0
19.07.2018 05:00:00 12,4 10,5 10,3 18,1 22,3 19,2 3 2 5 3 SE 1019,0 12 0 0,0
19.07.2018 04:00:00 13,3 10,7 10,6 18,6 22,7 19,2 3 2 7 4 S 1019,0 19 0 0,0
19.07.2018 03:00:00 13,7 10,5 11,5 19,2 23,1 19,2 2 1 5 3 W 1018,8 22 0 0,0
19.07.2018 02:00:00 15,1 10,5 11,9 19,9 23,5 19,2 5 3 8 4 ESE 1018,6 38 0 0,0
19.07.2018 01:00:00 15,9 10,2 12,7 20,6 23,9 19,2 6 4 10 5 ESE 1018,3 38 0 0,0
19.07.2018 00:00:00 16,7 10,5 13,7 21,4 24,4 19,2 6 3 8 4 SE 1018,1 34 0 0,0
18.07.2018 23:00:00 17,1 10,4 14,5 22,4 24,8 19,2 4 2 5 3 E 1017,8 39 0 0,0
18.07.2018 22:00:00 18,3 10,8 15,7 23,8 25,1 19,2 4 2 7 4 NNE 1017,4 31 0 0,0
18.07.2018 21:00:00 22,3 9,8 19,1 25,6 25,3 19,2 6 3 12 6 NNE 1017,1 40 35 0,0
18.07.2018 20:00:00 24,3 9,3 25,7 27,7 25,3 19,2 10 5 32 17 NNE 1016,8 46 60 0,0
18.07.2018 19:00:00 24,4 9,8 25,3 29,0 25,2 19,2 6 3 31 17 WNW 1016,8 45 48 0,0
18.07.2018 18:00:00 25,2 8,4 29,9 30,4 24,8 19,2 8 5 16 9 NNE 1017,2 51 56 0,0
18.07.2018 17:00:00 25,3 9,4 28,4 30,1 24,4 19,2 9 5 22 12 NW 1017,5 44 43 0,0
18.07.2018 16:00:00 24,7 8,9 31,0 29,9 23,9 19,2 9 5 22 12 NNE 1017,7 42 51 0,0
18.07.2018 15:00:00 24,5 9,9 30,6 30,1 23,2 19,2 10 5 26 14 NW 1018,0 34 60 0,0
18.07.2018 14:00:00 23,5 10,0 31,1 29,2 22,6 19,2 12 6 22 12 N 1018,4 39 60 0,0
18.07.2018 13:00:00 22,5 9,7 29,8 27,2 21,9 19,1 8 4 16 9 N 1018,8 28 60 0,0
18.07.2018 12:00:00 21,8 9,7 26,2 25,1 21,4 19,1 5 3 17 9 NE 1019,0 56 60 0,0
18.07.2018 11:00:00 20,2 11,2 23,0 23,9 20,9 19,1 5 3 12 6 ESE 1019,3 40 60 0,0
18.07.2018 10:00:00 19,4 12,8 20,9 22,2 20,6 19,1 5 3 13 7 ESE 1019,6 18 60 0,0
18.07.2018 09:00:00 18,5 13,9 18,3 20,0 20,6 19,1 4 2 8 5 E 1019,4 14 60 0,0
18.07.2018 08:00:00 16,2 12,5 13,8 17,3 20,8 19,1 3 2 6 3 W 1019,4 16 60 0,0
18.07.2018 07:00:00 14,0 12,7 12,7 16,8 21,1 19,1 5 3 8 4 SW 1019,1 5 44 0,0
18.07.2018 06:00:00 12,4 11,6 10,4 16,7 21,5 19,1 5 3 10 6 SW 1019,0 4,8 0 0,0
18.07.2018 05:00:00 12,9 12,3 10,6 17,1 21,9 19,1 5 3 8 4 W 1018,9 2,6 0 0,0
18.07.2018 04:00:00 13,9 13,2 11,7 17,7 22,3 19,1 5 3 7 4 W 1018,7 3,4 0 0,0
18.07.2018 03:00:00 14,1 13,5 11,7 18,3 22,7 19,0 5 3 8 4 W 1018,7 6 0 0,0
18.07.2018 02:00:00 14,6 13,5 13,0 19,0 23,1 19,0 6 3 9 5 W 1018,7 8 0 0,0
18.07.2018 01:00:00 15,5 14,9 13,8 19,6 23,6 19,0 4 2 9 5 W 1018,3 2,8 0 0,0
18.07.2018 00:00:00 15,6 14,8 14,2 20,3 24,0 19,0 5 3 8 4 W 1018,0 8 0 0,0
17.07.2018 23:00:00 15,6 14,8 14,8 21,2 24,5 19,0 5 3 9 5 WNW 1017,5 4,9 0 0,0
17.07.2018 22:00:00 16,8 15,6 16,3 22,5 24,9 19,0 5 3 9 5 SE 1016,9 11 0 0,0
17.07.2018 21:00:00 17,7 16,1 17,5 23,5 25,3 19,0 6 3 9 5 ESE 1016,4 19 6 0,4
17.07.2018 20:00:00 17,4 15,7 18,0 24,4 25,6 19,0 3 2 43 23 N 1016,2 6 0 1,7
17.07.2018 19:00:00 20,7 14,7 18,7 28,0 25,6 19,0 21 12 57 31 SW 1015,4 5 12 0,0
17.07.2018 18:00:00 26,7 12,6 28,4 29,5 25,5 19,0 7 4 15 8 WSW 1014,1 58 41 0,0
17.07.2018 17:00:00 24,7 13,6 26,4 28,2 25,4 19,0 4 2 34 19 SW 1014,5 48 4 0,0
17.07.2018 16:00:00 23,1 13,5 23,9 29,1 25,2 18,9 19 10 32 17 SSW 1014,8 42 3 0,0
17.07.2018 15:00:00 26,4 10,8 28,3 30,9 24,7 18,9 12 7 32 17 WNW 1014,4 56 37 0,0
17.07.2018 14:00:00 27,6 12,2 34,7 31,3 24,1 18,9 11 6 25 13 NNW 1014,3 41 59 0,0
17.07.2018 13:00:00 26,6 12,7 32,7 29,3 23,5 18,9 13 7 24 13 WNW 1014,8 27 36 0,0
17.07.2018 12:00:00 25,6 12,3 30,7 28,1 22,9 18,9 8 5 19 10 WNW 1014,9 25 58 0,0
17.07.2018 11:00:00 24,1 12,8 29,3 26,4 22,4 18,9 9 5 21 12 NW 1014,7 26 38 0,0
17.07.2018 10:00:00 23,3 12,7 27,8 24,6 22,1 18,9 7 4 15 8 WNW 1014,5 31 54 0,0
17.07.2018 09:00:00 21,6 13,0 23,9 22,2 22,1 18,9 4 2 7 4 WNW 1014,4 31 56 0,0
17.07.2018 08:00:00 20,0 11,9 18,0 20,3 22,3 18,8 0 0 7 4 N 1014,3 32 44 0,0
17.07.2018 07:00:00 18,3 11,5 16,4 19,9 22,5 18,8 3 2 9 5 SSW 1013,8 37 35 0,0
17.07.2018 06:00:00 17,6 10,0 15,5 19,5 22,9 18,8 4 2 12 7 WSW 1013,6 43 0 0,0
17.07.2018 05:00:00 16,6 9,2 13,3 19,8 23,3 18,8 5 3 9 5 SSW 1013,2 45 0 0,0
17.07.2018 04:00:00 15,5 9,7 12,9 20,3 23,7 18,8 4 2 8 4 SSW 1013,4 41 0 0,0
17.07.2018 03:00:00 16,1 9,9 13,7 20,8 24,1 18,8 3 2 7 4 S 1013,4 50 0 0,0
17.07.2018 02:00:00 16,8 9,8 14,3 21,5 24,6 18,8 5 3 12 6 ESE 1013,4 49 0 0,0
17.07.2018 01:00:00 17,2 11,0 14,3 22,3 25,0 18,8 6 3 11 6 S 1013,1 48 0 0,0
17.07.2018 00:00:00 19,0 11,1 16,2 23,3 25,5 18,8 7 4 13 7 SE 1012,9 53 0 0,0
16.07.2018 23:00:00 21,9 10,5 17,5 24,4 25,9 18,8 7 4 12 7 ENE 1012,4 51 0 0,0
16.07.2018 22:00:00 22,9 9,5 19,0 25,7 26,3 18,8 5 3 9 5 N 1011,7 59 23 0,0
16.07.2018 21:00:00 25,4 7,9 21,2 27,4 26,5 18,8 6 3 13 7 N 1011,1 64 60 0,0
16.07.2018 20:00:00 27,7 5,5 28,4 29,8 26,5 18,8 6 4 17 9 NNW 1010,5 70 60 0,0
16.07.2018 19:00:00 28,2 6,5 30,6 30,9 26,4 18,8 6 3 15 8 NNW 1010,4 70 40 0,0
16.07.2018 18:00:00 28,5 6,2 31,6 32,9 26,1 18,7 9 5 25 13 WNW 1010,6 70 60 0,0
16.07.2018 17:00:00 29,1 6,5 32,9 32,7 25,6 18,7 6 3 19 11 W 1010,8 61 60 0,0
16.07.2018 16:00:00 28,3 5,4 33,5 32,8 25,0 18,7 10 5 23 12 NW 1011,0 57 60 0,0
16.07.2018 15:00:00 28,4 7,1 34,6 33,1 24,2 18,7 5 3 15 8 NW 1011,6 60 60 0,0
16.07.2018 14:00:00 27,2 9,6 35,7 32,1 23,4 18,7 8 4 16 9 NNW 1012,4 36 60 0,0
16.07.2018 13:00:00 26,9 11,2 31,7 30,2 22,6 18,7 8 4 13 7 WNW 1012,6 41 60 0,0
16.07.2018 12:00:00 24,6 10,9 30,6 28,0 21,9 18,7 7 4 14 7 N 1013,1 42 60 0,0
16.07.2018 11:00:00 23,4 11,3 30,4 26,1 21,3 18,7 5 3 8 4 N 1013,3 36 60 0,0
16.07.2018 10:00:00 22,1 11,5 27,3 23,6 20,9 18,7 4 2 8 4 N 1013,5 54 60 0,0
16.07.2018 09:00:00 20,3 11,6 22,4 20,9 20,9 18,7 4 2 8 4 ENE 1013,8 41 60 0,0
16.07.2018 08:00:00 18,7 11,7 16,3 18,4 21,1 18,7 3 1 8 5 SE 1014,0 41 60 0,0
16.07.2018 07:00:00 15,7 11,1 13,3 18,0 21,4 18,7 4 2 7 4 SSE 1014,3 48 51 0,0
16.07.2018 06:00:00 13,1 9,9 10,9 17,9 21,8 18,6 4 2 6 3 SSE 1014,6 51 0 0,0
16.07.2018 05:00:00 13,4 10,5 11,3 18,4 22,2 18,6 5 3 7 4 SSE 1014,6 59 0 0,0
16.07.2018 04:00:00 14,1 9,4 12,0 19,0 22,6 18,6 4 2 8 4 S 1014,4 67 0 0,0
16.07.2018 03:00:00 15,4 9,3 12,4 19,7 23,0 18,6 5 3 8 4 E 1014,6 70 0 0,0
16.07.2018 02:00:00 16,0 9,3 12,8 20,3 23,4 18,6 4 2 6 3 ENE 1014,7 70 0 0,0
16.07.2018 01:00:00 18,2 8,8 14,3 21,2 23,9 18,6 4 2 13 7 NNE 1014,8 70 0 0,0
16.07.2018 00:00:00 20,6 8,4 16,5 22,0 24,3 18,6 8 4 13 7 NNE 1014,5 70 0 0,0
15.07.2018 23:00:00 21,9 8,3 17,6 23,1 24,8 18,6 6 3 13 7 NNE 1014,6 70 0 0,0
15.07.2018 22:00:00 22,9 8,5 18,2 24,5 25,1 18,6 8 4 15 8 N 1014,0 70 33 0,0
15.07.2018 21:00:00 25,0 8,2 22,5 26,2 25,3 18,6 9 5 22 12 N 1013,3 70 60 0,0
15.07.2018 20:00:00 26,5 7,9 27,9 28,5 25,3 18,6 8 4 20 11 N 1013,2 70 60 0,0
15.07.2018 19:00:00 27,0 6,8 30,5 30,1 25,1 18,6 9 5 18 10 N 1013,3 70 60 0,0
15.07.2018 18:00:00 27,5 7,4 32,0 30,9 24,8 18,6 12 7 22 12 N 1013,6 51 60 0,0
15.07.2018 17:00:00 27,5 7,8 33,7 31,2 24,3 18,6 10 5 23 12 N 1013,7 64 60 0,0
15.07.2018 16:00:00 27,4 8,4 34,2 31,0 23,7 18,6 10 5 22 12 N 1014,2 49 60 0,0
15.07.2018 15:00:00 27,1 9,5 34,8 31,1 22,9 18,6 9 5 21 11 N 1014,8 42 60 0,0
15.07.2018 14:00:00 26,5 9,8 34,3 30,2 22,2 18,6 8 4 21 11 NNE 1015,7 55 60 0,0
15.07.2018 13:00:00 25,2 9,9 31,3 28,5 21,4 18,6 8 5 19 10 NNW 1016,4 27 60 0,0
15.07.2018 12:00:00 24,0 11,0 28,9 26,4 20,7 18,6 6 3 13 7 NE 1016,9 35 60 0,0
15.07.2018 11:00:00 22,8 11,9 27,6 24,7 20,2 18,6 8 4 14 7 N 1017,0 35 60 0,0
15.07.2018 10:00:00 21,4 13,6 24,4 22,5 19,8 18,6 4 2 8 4 W 1017,3 20 60 0,0
15.07.2018 09:00:00 19,5 12,9 21,8 20,0 19,7 18,6 3 2 6 3 W 1017,4 16 60 0,0
15.07.2018 08:00:00 17,6 11,8 15,2 17,3 19,9 18,6 2 1 4 2 N 1017,5 17 60 0,0
15.07.2018 07:00:00 15,4 12,7 12,6 16,7 20,1 18,6 0 0 5 3 N 1017,5 7 57 0,0
15.07.2018 06:00:00 13,1 12,0 10,4 16,5 20,5 18,6 4 2 6 3 NE 1017,9 8 0 0,0
15.07.2018 05:00:00 13,3 11,5 11,4 16,9 20,8 18,6 4 2 6 3 ESE 1018,0 13 0 0,0
15.07.2018 04:00:00 13,8 11,9 11,2 17,4 21,2 18,6 3 2 5 3 NNW 1018,0 15 0 0,0
15.07.2018 03:00:00 14,4 11,9 11,8 18,1 21,6 18,6 3 2 5 3 SW 1018,1 15 0 0,0
15.07.2018 02:00:00 16,6 11,7 12,7 18,7 22,0 18,6 5 3 6 3 ENE 1018,1 23 0 0,0
15.07.2018 01:00:00 18,0 11,5 13,8 19,3 22,3 18,6 5 3 8 4 E 1018,1 28 0 0,0
15.07.2018 00:00:00 19,5 11,5 15,2 20,1 22,7 18,6 6 3 13 7 NE 1018,0 31 0 0,0
14.07.2018 23:00:00 21,6 11,2 17,9 20,9 23,1 18,6 9 5 15 8 N 1017,7 37 0 0,0
14.07.2018 22:00:00 22,1 10,8 17,7 21,9 23,4 18,6 6 3 16 9 N 1017,4 33 21 0,0
14.07.2018 21:00:00 24,1 9,4 21,2 23,2 23,7 18,6 9 5 20 11 N 1016,9 52 60 0,0
14.07.2018 20:00:00 25,3 10,2 25,7 25,2 23,8 18,6 8 5 21 12 N 1016,7 48 60 0,0
14.07.2018 19:00:00 26,1 11,0 27,7 26,2 23,8 18,6 10 5 19 11 N 1016,9 28 39 0,0
14.07.2018 18:00:00 25,7 11,0 26,9 27,4 23,6 18,6 9 5 23 12 NW 1017,3 25 52 0,0
14.07.2018 17:00:00 26,6 11,8 30,9 27,9 23,3 18,6 12 7 25 14 NNW 1017,2 28 59 0,0
14.07.2018 16:00:00 26,7 11,2 30,9 28,0 23,0 18,6 8 4 22 12 NNW 1017,5 28 58 0,0
14.07.2018 15:00:00 26,5 12,1 30,9 28,5 22,5 18,6 9 5 23 12 WNW 1018,1 32 60 0,0
14.07.2018 14:00:00 25,9 12,3 31,3 28,1 21,9 18,6 9 5 18 10 WNW 1018,5 23 51 0,0

tt = Température de l'air
td = dewpoint
tt 5cm = Température de l'air 5cm
tt -5cm = Température de l'air -5cm
tt -20cm = Température de l'air -20cm
tt -100cm = Température de l'air -100cm
ff = Vitesse du vent
fx = gusts
dd = Direction du vent
ppp = reduced air pressure
vv = visibility
sd = Ensoleillement
rr = Quantités de précipitations

stations d'obs. à proximité